STARLINK-31879, 59937

Orbit data source: Space-Track

STARLINK-31879, 59937 is a payload satellite owned by SpaceX/Seattle (US) in LEO that was launched on Sat, 01 Jun 2024 UTC via an FALCON 9 launch vehicle from the Air Force Eastern Test Range (AFETR). Payload-class satellites include a variety of spacecraft equipped with specific instruments for various scientific and technological missions. These include communications satellites like Starlink; space stations such as the ISS; scientific satellites like the Hubble; Earth observation satellites from companies like Planet Labs, Umbra, and HawkEye 360; GPS; miniature CubeSats for education and research; and military/defense satellites.

Loading next visibility...
Identifier
59937, 2024-106R
Orbit
LEO
Country
Flag of USUS
Related business
Manufacturer
SpaceX/Seattle
Mission
Operational Commercial Communications
Bus & Motor
STARLINK V2M, Unknown motor
Mass
730 kg wet, ~700 kg dry
Launch date (UTC)
2024-06-01 (1 year ago)
Launch vehicle
FALCON 9
Launch site
Air Force Eastern Test Range (AFETR)
Object type
Payload
Rocket body
Debris
Shape & HBR
Box + 2 Pan, 17.7 m
Radar Cross Section
33.884 m², Large (>1 m²)

Expand to show TLE details & history
Last TLE update: 16 hours ago

TLE from 16 hours ago
0 STARLINK-31879
1 59937U 24106R   25299.22856759  .00002186  00000-0  88917-4 0  9991
2 59937  42.9974  12.3192 0000298 278.6346  81.4472 15.27577567 80009
Epoch: 2025-10-26T05:29Z
TLE epoch observation values (Epoch: 2025-10-26T05:29:08.239Z)
Latitude
-0.00002°
Longitude
-104.81292°
Altitude
482.801 km
Speed
7.626 km/s
True Right ascension
00h 49m 16s
True Declination
0° 00' 00"
Sunlit
Object was in full shadow at epoch
Visualization orbit readout
Latitude
Unknown
Longitude
Unknown
Altitude
Unknown
Speed
Unknown
Apparent Right ascension
Unknown
Apparent Declination
Unknown
Sunlit
N/A
Visualization observer readout
Local Sidereal Time
16:22:51
Azimuth
Unknown
Elevation
Unknown
Doppler factor
Unknown
Orbital elements
Apogee altitude
485.207 km
Perigee altitude
484.797 km
Semi-major axis
6,863.139 km
Eccentricity
0.00003
Inclination
42.9974°
RAAN
12.3192°
Arg. of periapsis
278.6346°
True anomaly
81.45058°
Mean anomaly
81.4472°
Eccentric anomaly
81.44889°
Mean motion
3.81732 °/min
Orbital period
94.31 mins
BSTAR
0.000088917
Loading maneuver chart data...
Computing Atmospheric mass density...
Loading historical data...
Loading historical data...
Loading historical data...
Loading historical data...
Loading historical data...
Loading historical data...
Loading historical data...

Documentation

Showing up to 5 results
|